This is the latest recevied weather packets stored in our database for station/object I1SXT-13. If no packets are shown the sender has not sent any weather packets the latest 10 day(s).
| Time | Temp. | Humidity | Pressure | Rain* | Wind** | Luminosity | Snow |
|---|---|---|---|---|---|---|---|
| 1777813764 | 20° C | 64% | 1021.8 hPa | 0 mm | - | - | - |
| 1777813467 | 20° C | 60% | 1021.2 hPa | 0 mm | - | - | - |
| 1777813170 | 20° C | 61% | 1021.5 hPa | 0 mm | - | - | - |
| 1777812866 | 20.56° C | 60% | 1021.5 hPa | 0 mm | - | - | - |
| 1777812569 | 20.56° C | 59% | 1021.6 hPa | 0 mm | - | - | - |
| 1777812265 | 20.56° C | 55% | 1021.3 hPa | 0 mm | - | - | - |
| 1777811968 | 20.56° C | 58% | 1021.5 hPa | 0 mm | - | - | - |
| 1777811069 | 20° C | 60% | 1022.6 hPa | 0 mm | - | - | - |
| 1777810765 | 20.56° C | 62% | 1022.3 hPa | 0 mm | - | - | - |
| 1777810468 | 20.56° C | 64% | 1022 hPa | 0 mm | - | - | - |
| 1777810164 | 20.56° C | 58% | 1022.7 hPa | 0 mm | - | - | - |
| 1777809867 | 20.56° C | 62% | 1022.9 hPa | 0 mm | - | - | - |
| 1777809570 | 21.11° C | 62% | 1022.5 hPa | 0 mm | - | - | - |
| 1777809266 | 21.11° C | 61% | 1022.4 hPa | 0 mm | - | - | - |
| 1777808963 | 20.56° C | 61% | 1022.4 hPa | 0 mm | - | - | - |
| 1777808666 | 20.56° C | 61% | 1022.3 hPa | 0 mm | - | - | - |
| 1777808369 | 20.56° C | 63% | 1022.1 hPa | 0 mm | - | - | - |
| 1777808065 | 20° C | 63% | 1022.4 hPa | 0 mm | - | - | - |
| 1777807768 | 20° C | 61% | 1022.2 hPa | 0 mm | - | - | - |
| 1777807464 | 19.44° C | 60% | 1022.3 hPa | 0 mm | - | - | - |
| 1777807167 | 20° C | 61% | 1022.5 hPa | 0 mm | - | - | - |
| 1777806870 | 20° C | 63% | 1021.7 hPa | 0 mm | - | - | - |
| 1777806566 | 19.44° C | 61% | 1022.4 hPa | 0 mm | - | - | - |
| 1777806268 | 20° C | 61% | 1022.5 hPa | 0 mm | - | - | - |
| 1777805964 | 20° C | 61% | 1021.5 hPa | 0 mm | - | - | - |
* Rain since midnight (hover to see other rain measurements)
** Current wind speed in m/s (hover to see current wind gust speed)